Simultaneous Nadir Overpasses (SNOs) Predictions

Prediction of SNOs between GOES-16 and AQUA Satellite Orbit:

Table of predicted SNOs for the next 14.0 days since TLE Epoch: 7/21/2023
Index Date Time (GOES-16) GOES-16 Lat,Lon AQUA Lat,Lon Distance(km) Time Diff (sec)
1 07/22/2023 07:09:24 0.02, -75.20 0.84, -79.09 441.33 80
2 07/24/2023 06:55:08 0.02, -75.21 0.09, -75.61 44.20 80
3 07/26/2023 06:38:11 0.03, -75.23 -0.62, -72.12 353.57 80
4 07/26/2023 18:59:02 -0.03, -75.24 -0.46, -77.17 220.42 80
5 07/28/2023 18:47:26 -0.04, -75.25 0.30, -73.69 177.79 80
6 07/29/2023 07:08:08 0.04, -75.25 0.75, -78.71 392.46 80
7 07/31/2023 06:51:10 0.05, -75.27 0.02, -75.22 6.46 80
8 08/02/2023 06:36:51 0.05, -75.29 -0.69, -71.72 405.37 80
9 08/02/2023 18:57:43 -0.05, -75.30 -0.34, -76.78 168.13 80
